Weather reports worldwide

Advertisment
Andrewsfield, United Kingdom (3684): temperature & dewpoint: 20.09.2018 10:00:00 - 26.09.2018 10:00:00 (BST)Andrewsfield, United Kingdom (3684): temperature -20cm & temperature -100cm: 20.09.2018 10:00:00 - 26.09.2018 10:00:00 (BST)Andrewsfield, United Kingdom (3684): wind speed & gusts: 20.09.2018 10:00:00 - 26.09.2018 10:00:00 (BST)Andrewsfield, United Kingdom (3684): wind direction: 20.09.2018 10:00:00 - 26.09.2018 10:00:00 (BST)Andrewsfield, United Kingdom (3684): reduced air pressure: 20.09.2018 10:00:00 - 26.09.2018 10:00:00 (BST)Andrewsfield, United Kingdom (3684): visibility: 20.09.2018 10:00:00 - 26.09.2018 10:00:00 (BST)Andrewsfield, United Kingdom (3684): precipitation: 20.09.2018 10:00:00 - 26.09.2018 10:00:00 (BST)
Date & Time tt [°C] td [°C] tt -20cm [°C] tt -100cm [°C] ff [km/h] ff [kn] fx [km/h] fx [kn] dd ppp [hPa] vv [km] rr [mm]
26.09.2018 10:00:00 13,7 8,9 - - 18 10 - - WSW 1033,0 40 0,0
26.09.2018 09:00:00 10,4 7,7 - - 15 8 - - WSW 1032,8 30 0,0
26.09.2018 08:00:00 7,5 6,2 - - 11 6 - - WSW 1032,6 25 0,0
26.09.2018 07:00:00 5,6 4,6 - - 11 6 - - WSW 1032,9 22 0,0
26.09.2018 06:00:00 6,5 5,3 - - 11 6 - - SW 1032,8 28 0,0
26.09.2018 05:00:00 6,2 4,5 - - 8 4 - - SW 1033,0 25 0,0
26.09.2018 04:00:00 6,7 4,5 - - 9 5 - - SW 1033,5 26 0,0
26.09.2018 03:00:00 7,5 5,3 - - 9 5 - - SW 1034,1 30 0,0
26.09.2018 02:00:00 8,3 5,0 - - 9 5 - - SSW 1034,4 35 0,0
26.09.2018 01:00:00 8,7 4,8 - - 5 3 - - S 1034,7 30 0,0
26.09.2018 00:00:00 8,8 4,7 - - 9 5 - - SW 1035,1 30 0,0
25.09.2018 23:00:00 9,4 5,4 - - 8 4 - - SW 1035,3 30 0,0
25.09.2018 22:00:00 10,1 5,1 - - 11 6 - - SSW 1035,6 35 0,0
25.09.2018 21:00:00 11,2 5,7 - - 11 6 - - SSW 1035,6 35 0,0
25.09.2018 20:00:00 11,6 7,4 - - 5 3 - - SSE 1035,6 35 0,0
25.09.2018 19:00:00 12,9 7,2 - - 13 7 - - SSE 1035,1 40 0,0
25.09.2018 18:00:00 15,2 4,7 - - 13 7 - - SSW 1035,8 45 0,0
25.09.2018 17:00:00 15,6 4,1 - - 15 8 - - SSW 1035,4 40 0,0
25.09.2018 16:00:00 15,7 4,5 - - 18 10 - - SSW 1035,7 40 0,0
25.09.2018 15:00:00 15,5 5,6 - - 15 8 - - SW 1036,8 40 0,0
25.09.2018 14:00:00 15,4 5,0 - - 15 8 - - SSW 1037,3 45 0,0
25.09.2018 13:00:00 14,9 5,1 - - 16 9 - - SW 1038,1 40 0,0
25.09.2018 12:00:00 14,7 6,0 - - 15 8 - - WSW 1038,9 35 0,0
25.09.2018 11:00:00 14,0 4,8 - - 8 4 - - S 1039,3 35 0,0
25.09.2018 10:00:00 11,7 7,0 13,7 15,9 5 3 - - WSW 1039,2 35 0,0
25.09.2018 09:00:00 8,2 7,0 - - 2 1 - - W 1039,0 22 0,0
25.09.2018 08:00:00 3,8 3,6 - - 2 1 - - NW 1038,8 14 0,0
25.09.2018 07:00:00 2,6 2,2 - - 2 1 - - W 1038,4 13 0,0
25.09.2018 06:00:00 3,7 3,2 - - 4 2 - - NNW 1038,7 24 0,0
25.09.2018 05:00:00 2,9 2,2 - - 4 2 - - NW 1038,9 26 0,0
25.09.2018 04:00:00 3,2 2,3 - - 4 2 - - NNW 1038,9 35 0,0
25.09.2018 03:00:00 4,0 2,8 - - 4 2 - - N 1038,8 45 0,0
25.09.2018 02:00:00 4,5 2,4 - - 4 2 - - WNW 1039,0 30 0,0
25.09.2018 01:00:00 4,7 2,5 - - 5 3 - - W 1039,1 30 0,0
25.09.2018 00:00:00 5,7 2,6 - - 4 2 - - NW 1039,2 29 0,0
24.09.2018 23:00:00 6,0 3,2 - - 5 3 - - WSW 1038,9 30 0,0
24.09.2018 22:00:00 7,3 3,3 - - 4 2 - - W 1038,7 35 0,0
24.09.2018 21:00:00 7,3 3,6 - - 2 1 - - SW 1038,3 4,0 0,0
24.09.2018 20:00:00 9,4 2,9 - - 5 3 - - NNW 1038,0 35 0,0
24.09.2018 19:00:00 11,8 1,6 - - 4 2 - - N 1037,5 45 0,0
24.09.2018 18:00:00 13,4 0,9 - - 9 5 - - N 1037,0 50 0,0
24.09.2018 17:00:00 13,9 2,5 - - 9 5 - - N 1037,2 45 0,0
24.09.2018 16:00:00 14,0 3,2 - - 8 4 - - NNW 1037,5 55 0,0
24.09.2018 15:00:00 13,9 5,1 - - 11 6 - - N 1037,5 45 0,0
24.09.2018 14:00:00 13,2 5,6 - - 9 5 - - NW 1037,6 45 0,0
24.09.2018 13:00:00 12,6 6,4 - - 11 6 - - NNW 1037,9 50 0,0
24.09.2018 12:00:00 11,5 7,0 - - 11 6 - - WNW 1038,0 45 0,0
24.09.2018 11:00:00 10,3 6,1 - - 9 5 - - NW 1037,5 35 0,0
24.09.2018 10:00:00 9,0 5,5 14,0 16,0 15 8 - - NNW 1037,2 40 0,0
24.09.2018 09:00:00 7,6 5,0 - - 11 6 - - NW 1036,6 40 0,0
24.09.2018 08:00:00 5,5 4,3 - - 8 4 - - WNW 1035,7 35 0,0
24.09.2018 07:00:00 5,0 4,1 - - 9 5 - - WNW 1035,2 30 0,0
24.09.2018 06:00:00 4,9 4,0 - - 8 4 - - WNW 1034,7 30 0,0
24.09.2018 05:00:00 5,1 4,2 - - 9 5 - - WNW 1034,4 30 0,0
24.09.2018 04:00:00 5,6 4,3 - - 9 5 - - W 1033,8 35 0,0
24.09.2018 03:00:00 5,8 4,3 - - 9 5 - - WNW 1033,3 40 0,0
24.09.2018 02:00:00 6,1 4,1 - - 9 5 - - WNW 1032,4 35 0,0
24.09.2018 01:00:00 6,4 4,2 - - 9 5 - - NW 1031,6 45 0,0
24.09.2018 00:00:00 6,5 4,0 - - 8 4 - - WNW 1030,6 40 0,0
23.09.2018 23:00:00 7,6 4,9 - - 9 5 - - NW 1029,7 35 0,0
23.09.2018 22:00:00 7,4 5,1 - - 8 4 - - NW 1028,7 45 0,0
23.09.2018 21:00:00 8,2 5,6 - - 8 4 - - NW 1027,6 40 0,0
23.09.2018 20:00:00 8,8 5,4 - - 8 4 - - N 1026,1 45 0,0
23.09.2018 19:00:00 9,8 6,0 - - 11 6 - - NNW 1024,4 50 0,0
23.09.2018 18:00:00 11,3 5,4 - - 18 10 - - NNW 1022,7 45 0,0
23.09.2018 17:00:00 12,0 4,4 - - 16 9 - - NNW 1021,2 50 0,0
23.09.2018 16:00:00 12,4 5,5 - - 21 11 - - NW 1019,9 60 0,0
23.09.2018 15:00:00 11,8 6,6 - - 18 10 - - NW 1019,0 55 0,0
23.09.2018 14:00:00 10,1 6,5 - - 16 9 - - NW 1018,2 45 0,2
23.09.2018 13:00:00 9,3 8,2 - - 15 8 - - NNW 1017,2 30 0,4
23.09.2018 12:00:00 8,3 7,3 - - 13 7 - - NNW 1016,5 13 2,2
23.09.2018 11:00:00 8,7 8,0 - - 16 9 - - NNW 1016,2 6 3,4
23.09.2018 10:00:00 9,3 8,9 14,9 16,2 13 7 - - N 1015,1 5 2,8
23.09.2018 09:00:00 9,2 8,8 - - 9 5 - - NNE 1013,7 5 2,8
23.09.2018 08:00:00 9,0 8,7 - - 9 5 - - NNE 1013,4 6 1,8
23.09.2018 07:00:00 9,0 8,4 - - 9 5 - - NNE 1013,9 2,5 0,2
23.09.2018 06:00:00 9,4 7,5 - - 13 7 - - NNE 1013,5 35 0,0
23.09.2018 05:00:00 9,4 7,6 - - 13 7 - - NNE 1013,6 26 0,0
23.09.2018 04:00:00 9,6 8,3 - - 11 6 - - NNE 1013,9 26 0,0
23.09.2018 03:00:00 9,7 8,8 - - 13 7 - - NE 1013,6 20 0,0
23.09.2018 02:00:00 9,7 9,2 - - 11 6 - - NNE 1014,4 12 0,0
23.09.2018 01:00:00 9,7 9,3 - - 13 7 - - NNE 1014,6 14 0,0
23.09.2018 00:00:00 9,6 9,4 - - 11 6 - - NE 1014,4 11 0,0
22.09.2018 23:00:00 9,6 9,4 - - 9 5 - - ENE 1014,6 8 0,0
22.09.2018 22:00:00 9,7 9,4 - - 9 5 - - ENE 1014,9 10 0,0
22.09.2018 21:00:00 10,0 9,7 - - 8 4 - - E 1015,7 11 0,2
22.09.2018 20:00:00 9,9 9,5 - - 9 5 - - ESE 1015,8 8 0,2
22.09.2018 19:00:00 9,9 9,2 - - 9 5 - - ESE 1015,8 11 0,4
22.09.2018 18:00:00 9,9 8,4 - - 9 5 - - ESE 1016,4 18 0,4
22.09.2018 17:00:00 10,3 8,1 - - 8 4 - - SE 1016,9 19 0,4
22.09.2018 16:00:00 10,6 6,7 - - 2 1 - - NE 1017,7 19 0,8
22.09.2018 15:00:00 10,7 8,7 - - 5 3 - - WNW 1018,6 29 0,6
22.09.2018 14:00:00 10,5 8,0 - - 18 10 - - SW 1018,9 15 0,2
22.09.2018 13:00:00 12,5 7,9 - - 21 11 - - W 1019,2 35 0,0
22.09.2018 12:00:00 12,5 8,9 - - 18 10 - - W 1019,2 21 0,0
22.09.2018 11:00:00 12,5 8,5 - - 13 7 - - W 1019,1 35 0,0
22.09.2018 10:00:00 11,6 9,0 15,5 16,4 11 6 - - W 1018,9 30 0,0
22.09.2018 09:00:00 11,0 8,9 - - 16 9 - - WSW 1018,7 30 0,0
22.09.2018 08:00:00 10,0 8,5 - - 9 5 - - WSW 1018,6 30 0,0
22.09.2018 07:00:00 9,6 8,3 - - 13 7 - - WSW 1018,8 30 0,0
22.09.2018 06:00:00 9,4 8,0 - - 11 6 - - WSW 1018,2 30 0,0
22.09.2018 05:00:00 9,2 7,8 - - 11 6 - - WSW 1018,3 30 0,0
22.09.2018 04:00:00 9,4 7,6 - - 15 8 - - WSW 1018,3 30 0,0
22.09.2018 03:00:00 9,6 7,7 - - 18 10 - - WSW 1018,3 30 0,0
22.09.2018 02:00:00 9,5 7,3 - - 15 8 - - WSW 1018,1 30 0,0
22.09.2018 01:00:00 10,0 7,1 - - 16 9 - - WSW 1017,5 35 0,0
22.09.2018 00:00:00 10,3 6,8 - - 18 10 - - WSW 1017,6 35 0,0
21.09.2018 23:00:00 10,2 5,5 - - 18 10 - - WSW 1016,6 40 0,0
21.09.2018 22:00:00 10,7 5,1 - - 18 10 - - WSW 1016,0 40 0,0
21.09.2018 21:00:00 11,9 5,3 - - 21 11 - - W 1014,8 50 0,0
21.09.2018 20:00:00 13,6 5,2 - - 28 15 52 28 W 1013,7 50 0,0
21.09.2018 19:00:00 14,2 4,8 - - 34 18 57 31 W 1012,5 50 0,0
21.09.2018 18:00:00 15,0 4,8 - - 31 17 63 34 W 1011,0 50 0,0
21.09.2018 17:00:00 14,9 6,5 - - 31 17 63 34 W 1009,8 55 0,0
21.09.2018 16:00:00 13,9 7,7 - - 39 21 59 32 WSW 1009,2 40 0,2
21.09.2018 15:00:00 13,6 9,6 - - 37 20 83 45 W 1008,9 60 0,8
21.09.2018 14:00:00 15,0 5,0 - - 41 22 61 33 WSW 1007,9 45 0,0
21.09.2018 13:00:00 14,5 3,8 - - 37 20 65 35 W 1007,8 55 0,0
21.09.2018 12:00:00 14,0 5,1 - - 42 23 61 33 WSW 1007,2 50 0,0
21.09.2018 11:00:00 12,8 5,2 - - 42 23 59 32 W 1006,5 55 0,0
21.09.2018 10:00:00 11,7 5,9 16,7 16,4 39 21 52 28 W 1006,2 45 0,0
21.09.2018 09:00:00 10,7 6,2 - - 35 19 48 26 W 1005,1 50 0,0
21.09.2018 08:00:00 10,1 6,1 - - 28 15 55 30 W 1003,7 55 0,0
21.09.2018 07:00:00 10,2 6,4 - - 29 16 57 31 W 1002,0 55 0,0
21.09.2018 06:00:00 11,5 6,7 - - 37 20 61 33 W 1000,4 55 0,0
21.09.2018 05:00:00 12,5 9,6 - - 37 20 61 33 WSW 998,6 40 0,0
21.09.2018 04:00:00 14,1 9,7 - - 42 23 65 35 W 997,0 45 0,6
21.09.2018 03:00:00 16,6 15,6 - - 48 26 78 42 WSW 995,7 2,3 3,0
21.09.2018 02:00:00 18,8 14,6 - - 46 25 74 40 SSW 995,7 40 0,0
21.09.2018 01:00:00 18,5 14,6 - - 41 22 67 36 SSW 997,2 35 0,0
21.09.2018 00:00:00 18,9 14,0 - - 39 21 65 35 SSW 999,0 28 0,0
20.09.2018 23:00:00 19,1 14,0 - - 31 17 57 31 SSW 1000,7 30 0,0
20.09.2018 22:00:00 19,0 14,0 - - 28 15 54 29 SSW 1002,4 35 0,0
20.09.2018 21:00:00 19,1 13,7 - - 29 16 57 31 SSW 1003,7 35 0,0
20.09.2018 20:00:00 19,2 13,6 - - 28 15 59 32 SSW 1004,2 35 0,0
20.09.2018 19:00:00 19,7 13,6 - - 37 20 57 31 SW 1005,4 35 0,0
20.09.2018 18:00:00 19,8 13,7 - - 34 18 59 32 SSW 1006,4 30 0,0
20.09.2018 17:00:00 20,0 13,5 - - 37 20 57 31 SSW 1007,3 35 0,0
20.09.2018 16:00:00 20,3 12,8 - - 39 21 63 34 SW 1008,1 35 0,0
20.09.2018 15:00:00 20,5 12,9 - - 39 21 65 35 SW 1008,9 35 0,0
20.09.2018 14:00:00 19,5 13,6 - - 31 17 52 28 SSW 1009,6 30 0,0
20.09.2018 13:00:00 18,9 15,0 - - 28 15 50 27 SW 1010,3 29 0,0
20.09.2018 12:00:00 18,8 15,5 - - 31 17 48 26 SW 1010,9 29 0,0
20.09.2018 11:00:00 18,7 14,5 - - 28 15 - - SW 1011,5 25 0,0
20.09.2018 10:00:00 18,3 14,1 16,7 16,4 34 18 50 27 SW 1011,5 27 0,0

tt = temperature
td = dewpoint
tt -20cm = temperature -20cm
tt -100cm = temperature -100cm
ff = wind speed
fx = gusts
dd = wind direction
ppp = reduced air pressure
vv = visibility
rr = precipitation

Next stations